Paris Le Bourget, France

11:24 AM CET on January 16, 2018 (GMT +0100)
Le Bourget

Weather History for LFPB - October, 2012

Change the Weather History Date:

Wednesday, October 24, 2012

  Actual Average Record
Temperature  
Mean Temperature 48 °F -  
Max Temperature 51 °F 51 °F 68 °F (2004)
Min Temperature 44 °F 41 °F 30 °F (2003)
Degree Days  
Heating Degree Days 16    
Moisture  
Dew Point 47 °F    
Average Humidity 92    
Maximum Humidity 100    
Minimum Humidity 82    
Precipitation  
Precipitation 0.00 in 0.07 in - ()
Sea Level Pressure  
Sea Level Pressure 30.07 in    
Wind  
Wind Speed 5 mph ()    
Max Wind Speed 10 mph    
Max Gust Speed -    
Visibility 4.5 miles    
Events      
Averages and records for this station are not official NWS values.
T = Trace of Precipitation, MM = Missing Value Source: Averaged Metar Reports

Daily Weather History Graph

Daily Weather History Graph

Search for Another Location

Airport or City:

Trip Planner

Search our weather history database for the weather conditions in past years. The results will help you decide how hot, cold, wet, or windy it might be!

Date:

Astronomy

Oct. 24, 2012 Rise Set
Actual Time 8:25 AM CEST 6:42 PM CEST
Civil Twilight 7:52 AM CEST 7:15 PM CEST
Nautical Twilight 7:15 AM CEST 7:52 PM CEST
Astronomical Twilight 6:38 AM CEST 8:28 PM CEST
Moon 4:13 PM CEST (10/24) 2:38 AM CEST (10/24)
Length of Visible Light 11h 22m
Length of Day
10h 17m
Waxing Gibbous, 73% of the Moon is Illuminated
Oct 24
Waxing Gibbous
Oct 29
Full
Nov 7
Last Quarter
Nov 13
New
Nov 20
First Quarter

Hourly Weather History & Observations

Time (CEST) Temp. Windchill Dew Point Humidity Pressure Visibility Wind Dir Wind Speed Gust Speed Precip Events Conditions
12:00 AM 51.8 °F - 50.0 °F 94% 30.15 in 3.1 mi NNE 2.3 mph - N/A   Mist
12:30 AM 51.8 °F - 50.0 °F 94% 30.15 in - NE 3.5 mph - N/A   Mist
1:00 AM 50.0 °F - 50.0 °F 100% 30.12 in - NNE 3.5 mph - N/A   Mist
1:30 AM 50.0 °F - 48.2 °F 94% 30.12 in - NNE 2.3 mph - N/A   Mist
2:00 AM 50.0 °F - 48.2 °F 94% 30.12 in - ENE 2.3 mph - N/A   Mist
2:30 AM 50.0 °F - 48.2 °F 94% 30.12 in - NE 3.5 mph - N/A   Mist
3:00 AM 48.2 °F - 48.2 °F 100% 30.12 in - NE 4.6 mph - N/A   Mist
3:30 AM 48.2 °F - 48.2 °F 100% 30.12 in 2.2 mi NE 4.6 mph - N/A   Mist
4:00 AM 48.2 °F - 48.2 °F 100% 30.09 in 3.1 mi ENE 6.9 mph - N/A   Mist
4:30 AM 48.2 °F - 46.4 °F 93% 30.09 in 3.7 mi East 8.1 mph - N/A   Unknown
5:00 AM 48.2 °F - 46.4 °F 93% 30.09 in 3.7 mi East 6.9 mph - N/A   Unknown
5:30 AM 46.4 °F 42.9 °F 44.6 °F 93% 30.09 in 3.1 mi East 6.9 mph - N/A   Mist
6:00 AM 48.2 °F - 46.4 °F 93% 30.09 in - East 8.1 mph - N/A   Scattered Clouds
6:30 AM 48.2 °F - 46.4 °F 93% 30.09 in 2.5 mi East 9.2 mph - N/A   Overcast
7:00 AM 48.2 °F - 46.4 °F 93% 30.09 in - East 9.2 mph - N/A   Overcast
7:30 AM 48.2 °F - 46.4 °F 93% 30.09 in 2.8 mi East 9.2 mph - N/A   Overcast
8:00 AM 48.2 °F - 46.4 °F 93% 30.06 in 2.5 mi East 8.1 mph - N/A   Overcast
8:30 AM 48.2 °F - 46.4 °F 93% 30.06 in - ENE 10.4 mph - N/A   Overcast
9:00 AM 48.2 °F - 48.2 °F 100% 30.09 in - East 9.2 mph - N/A   Overcast
9:30 AM 48.2 °F - 48.2 °F 100% 30.09 in 3.1 mi East 9.2 mph - N/A   Overcast
10:00 AM 50.0 °F - 48.2 °F 94% 30.09 in - East 6.9 mph - N/A   Overcast
10:30 AM 50.0 °F - 48.2 °F 94% 30.09 in 3.1 mi East 8.1 mph - N/A   Overcast
11:00 AM 50.0 °F - 48.2 °F 94% 30.09 in 3.7 mi East 10.4 mph - N/A   Overcast
11:30 AM 51.8 °F - 50.0 °F 94% 30.09 in 3.7 mi East 9.2 mph - N/A   Overcast
12:00 PM 51.8 °F - 50.0 °F 94% 30.09 in 5.0 mi ESE 8.1 mph - N/A   Overcast
12:30 PM 51.8 °F - 48.2 °F 88% 30.09 in 5.6 mi ESE 5.8 mph - N/A   Overcast
1:00 PM 51.8 °F - 50.0 °F 94% 30.09 in 6.2 mi ESE 6.9 mph - N/A   Overcast
1:30 PM 51.8 °F - 48.2 °F 88% 30.09 in 6.2 mi East 8.1 mph - N/A   Overcast
2:00 PM 51.8 °F - 48.2 °F 88% 30.06 in 6.2 mi East 6.9 mph - N/A   Overcast
2:30 PM 51.8 °F - 48.2 °F 88% 30.06 in 6.2 mi East 6.9 mph - N/A   Overcast
3:00 PM 51.8 °F - 48.2 °F 88% 30.06 in 6.2 mi East 8.1 mph - N/A   Overcast
3:30 PM 51.8 °F - 46.4 °F 82% 30.04 in 6.2 mi ESE 5.8 mph - N/A   Overcast
4:00 PM 51.8 °F - 48.2 °F 88% 30.04 in 6.2 mi East 9.2 mph - N/A   Overcast
4:30 PM 51.8 °F - 48.2 °F 88% 30.04 in 6.2 mi East 9.2 mph - N/A   Overcast
5:00 PM 51.8 °F - 46.4 °F 82% 30.04 in 6.2 mi East 10.4 mph - N/A   Overcast
5:30 PM 51.8 °F - 48.2 °F 88% 30.04 in 6.2 mi East 9.2 mph - N/A   Overcast
6:00 PM 51.8 °F - 46.4 °F 82% 30.01 in 6.2 mi East 10.4 mph - N/A   Mostly Cloudy
6:30 PM 50.0 °F - 46.4 °F 87% 30.01 in 6.2 mi East 6.9 mph - N/A   Partly Cloudy
7:00 PM 48.2 °F - 44.6 °F 87% 30.04 in 6.2 mi ESE 4.6 mph - N/A   Unknown
7:30 PM 48.2 °F - 44.6 °F 87% 30.04 in 5.6 mi East 3.5 mph - N/A   Unknown
8:00 PM 48.2 °F - 44.6 °F 87% 30.04 in 5.6 mi ESE 2.3 mph - N/A   Unknown
8:30 PM 48.2 °F - 44.6 °F 87% 30.01 in 5.6 mi ESE 3.5 mph - N/A   Unknown
9:00 PM 46.4 °F - 44.6 °F 93% 30.04 in 5.0 mi Calm Calm - N/A   Unknown
9:30 PM 46.4 °F - 44.6 °F 93% 30.01 in 3.7 mi Calm Calm - N/A   Unknown
10:00 PM 46.4 °F 45.2 °F 44.6 °F 93% 30.01 in 3.1 mi NE 3.5 mph - N/A   Mist
10:30 PM 46.4 °F 45.2 °F 44.6 °F 93% 30.01 in 3.1 mi North 3.5 mph - N/A   Mist
11:00 PM 46.4 °F 45.2 °F 44.6 °F 93% 30.01 in 3.1 mi North 3.5 mph - N/A   Mist
11:30 PM 44.6 °F - 42.8 °F 93% 30.01 in 1.3 mi Calm Calm - N/A   Mist